Location: Huntsville
(41.2590°N, 111.7678°W)
Time: 01:20:27
(UTC+00:00)

Explorer 11/Cluster Stage 4 - All Passes

Search period start: 03 October 2022 00:00
Search period end: 13 October 2022 00:00
Orbit: 466 x 1249 km, 28.8° (Epoch: 02 October)

Date Brightness Start Highest point End Pass type
(mag) Time Alt. Az. Time Alt. Az. Time Alt. Az.
03 Oct - 17:15:23 10° S 17:19:30 15° SSE 17:23:32 10° SE daylight
03 Oct - 19:01:17 10° SW 19:07:39 26° S 19:13:26 10° ESE daylight
03 Oct - 20:49:32 10° WSW 20:55:52 29° S 21:01:22 10° SE daylight
03 Oct - 22:39:03 10° WSW 22:43:43 19° SSW 22:47:49 10° SSE daylight
04 Oct - 17:02:03 10° SSW 17:06:48 17° SSE 17:11:26 10° ESE daylight
04 Oct - 18:48:21 10° SW 18:54:57 28° S 19:01:03 10° ESE daylight
04 Oct - 20:36:43 10° WSW 20:43:14 30° S 20:48:58 10° SE daylight
04 Oct - 22:26:23 10° WSW 22:31:07 19° SSW 22:35:18 10° SSE daylight
05 Oct - 16:48:52 10° SSW 16:54:03 18° SSE 16:59:12 10° ESE daylight
05 Oct - 18:35:28 10° SW 18:42:16 30° S 18:48:38 10° ESE daylight
05 Oct - 20:23:55 10° WSW 20:30:35 30° S 20:36:30 10° SE daylight
05 Oct - 22:13:43 10° WSW 22:18:29 19° SSW 22:22:44 10° SSE daylight
06 Oct - 16:35:49 10° SSW 16:41:19 20° SSE 16:46:50 10° ESE daylight
06 Oct - 18:22:38 10° SW 18:29:33 31° S 18:36:08 10° ESE daylight
06 Oct - 20:11:09 10° WSW 20:17:54 30° S 20:23:59 10° SE daylight
06 Oct - 22:01:06 10° WSW 22:05:49 18° SSW 22:10:05 10° SSE daylight
07 Oct - 16:22:50 10° SSW 16:28:34 22° SSE 16:34:24 10° ESE daylight
07 Oct - 18:09:50 10° SW 18:16:50 32° S 18:23:36 10° ESE daylight
07 Oct - 19:58:24 10° WSW 20:05:12 30° S 20:11:26 10° SE daylight
07 Oct - 21:48:30 10° WSW 21:53:07 17° SSW 21:57:22 10° SSE daylight
08 Oct - 16:09:58 10° SSW 16:15:49 23° SSE 16:21:52 10° ESE daylight
08 Oct - 17:57:05 10° SW 18:04:06 33° S 18:11:01 10° ESE daylight
08 Oct - 19:45:41 10° WSW 19:52:28 29° SSW 19:58:48 10° SE daylight
08 Oct - 21:35:58 10° WSW 21:40:24 16° SSW 21:44:32 10° S daylight
09 Oct - 14:15:02 10° SSE 14:15:19 10° SSE 14:15:36 10° SE daylight
09 Oct - 15:57:09 10° SSW 16:03:04 24° SSE 16:09:17 10° ESE daylight
09 Oct - 17:44:22 10° WSW 17:51:21 33° S 17:58:23 10° ESE daylight
09 Oct - 19:33:01 10° WSW 19:39:44 29° SSW 19:46:08 10° SE daylight
09 Oct - 21:23:31 10° WSW 21:27:40 15° SSW 21:31:37 10° S daylight
10 Oct - 14:00:41 10° SSE 14:02:35 11° SSE 14:04:32 10° SE daylight
10 Oct - 15:44:24 10° SW 15:50:19 25° SSE 15:56:39 10° ESE daylight
10 Oct - 17:31:42 10° WSW 17:38:36 33° S 17:45:41 10° ESE daylight
10 Oct - 19:20:22 10° WSW 19:26:59 28° SSW 19:33:24 10° SE daylight
10 Oct - 21:11:10 10° WSW 21:14:56 14° SSW 21:18:33 10° S daylight
11 Oct - 13:47:23 10° S 13:49:51 12° SSE 13:52:28 10° SE daylight
11 Oct - 15:31:43 10° SW 15:37:35 26° SSE 15:43:58 10° ESE daylight
11 Oct - 17:19:04 10° WSW 17:25:52 33° S 17:32:57 10° ESE daylight
11 Oct - 19:07:46 10° WSW 19:14:14 26° SSW 19:20:36 10° SE daylight
11 Oct - 20:58:57 10° SW 21:02:10 13° SSW 21:05:17 10° S daylight
12 Oct - 13:34:19 10° S 13:37:08 13° SSE 13:40:09 10° SE daylight
12 Oct - 15:19:05 10° SW 15:24:51 27° SSE 15:31:15 10° ESE daylight
12 Oct - 17:06:29 10° WSW 17:13:07 33° S 17:20:10 10° ESE daylight
12 Oct - 18:55:13 10° WSW 19:01:28 25° SSW 19:07:44 10° SE daylight
12 Oct - 20:47:04 10° SW 20:49:24 11° SSW 20:51:42 10° SSW daylight
